ASIASAT 4

Last updated on March 8, 2021, 6:42 a.m. UTC

1 27718U 03014A   21066.83868914  .00000134  00000-0  00000-0 0  9993
2 27718   0.0087 186.3393 0002896 166.2370 153.2922  1.00269513 25979
UTC
Height (km)
Latitude
Longitude
Inclination
Orbital Period
UTC large
Height (km)
Speed (km/s)
/
Latitude / Longitude
Inclination (degrees)
Orbital Period (minutes)
Azimuth
Elevation
Range (km)
Doppler Factor
iOS Compass Heading
iOS Angle

Next 30 passes for location: Hong Kong

Rise time Rise Azimuth (degrees) Set time Set Azimuth (degrees) Duration Max altitude (degrees)

No matching passes for this satellites